UAE222 EDDM-EDDF

Flight info

Callsign UAE222
Flight time 0h 32m
Altitude 25000
Route EDDM/08R GIVMI Y101 ERNAS T161 DEBHI DEBHI1B
Aircraft B77L/H-SDE1E2E3FGHIJ2J3J4J5M1RWXYZ/LB1D1

Departure

Time 2026-05-04 12:15
Airport Munich Airport (EDDM)

Arrival

Time 2026-05-04 12:48
Airport Frankfurt Main Airport (EDDF)
Time Latitude Longitude Altitude Speed Heading
2026-05-04 12:04 48.36083 11.79247 1469 ft 0 kts 90°
2026-05-04 12:04 48.36058 11.79307 1464 ft 16 kts 144°
2026-05-04 12:04 48.35947 11.79343 1471 ft 17 kts 171°
2026-05-04 12:05 48.35836 11.79330 1465 ft 17 kts 202°
2026-05-04 12:05 48.35819 11.79320 1468 ft 0 kts 202°
2026-05-04 12:05 48.35783 11.79307 1471 ft 14 kts 188°
2026-05-04 12:05 48.35776 11.79306 1471 ft 3 kts 188°
2026-05-04 12:06 48.35768 11.79304 1471 ft 0 kts 188°
2026-05-04 12:06 48.35781 11.79308 1471 ft 5 kts 200°
2026-05-04 12:06 48.35803 11.79327 1464 ft 3 kts 226°
2026-05-04 12:06 48.35817 11.79354 1462 ft 4 kts 241°
2026-05-04 12:07 48.35828 11.79396 1460 ft 5 kts 264°
2026-05-04 12:07 48.35832 11.79414 1461 ft 5 kts 310°
2026-05-04 12:07 48.35876 11.79384 1460 ft 12 kts 341°
2026-05-04 12:07 48.36018 11.79334 1464 ft 24 kts 354°
2026-05-04 12:08 48.36125 11.79316 1463 ft 0 kts 353°
2026-05-04 12:08 48.36148 11.79311 1462 ft 0 kts 352°
2026-05-04 12:09 48.36150 11.79309 1461 ft 6 kts 343°
2026-05-04 12:09 48.36186 11.79187 1466 ft 16 kts 289°
2026-05-04 12:09 48.36202 11.79110 1466 ft 5 kts 275°
2026-05-04 12:09 48.36184 11.78981 1472 ft 17 kts 260°
2026-05-04 12:10 48.36164 11.78811 1462 ft 17 kts 263°
2026-05-04 12:10 48.36153 11.78639 1466 ft 17 kts 269°
2026-05-04 12:10 48.36139 11.78462 1464 ft 17 kts 260°
2026-05-04 12:10 48.36123 11.78286 1463 ft 17 kts 269°
2026-05-04 12:11 48.36111 11.78098 1471 ft 23 kts 262°
2026-05-04 12:11 48.36091 11.77787 1462 ft 32 kts 262°
2026-05-04 12:11 48.36064 11.77474 1463 ft 30 kts 262°
2026-05-04 12:11 48.36030 11.77165 1468 ft 25 kts 258°
2026-05-04 12:12 48.36019 11.76969 1465 ft 19 kts 282°
2026-05-04 12:12 48.36043 11.76850 1466 ft 0 kts 308°
2026-05-04 12:14 48.36268 11.76874 1459 ft 26 kts 51°
2026-05-04 12:15 48.36304 11.77147 1472 ft 32 kts 84°
2026-05-04 12:15 48.36365 11.77916 1459 ft 124 kts 83°
2026-05-04 12:15 48.36512 11.79647 1750 ft 193 kts 83°
2026-05-04 12:15 48.36661 11.81667 2490 ft 194 kts 82°
2026-05-04 12:16 48.36960 11.83714 2583 ft 212 kts 66°
2026-05-04 12:16 48.37864 11.85501 3129 ft 214 kts 42°
2026-05-04 12:16 48.39072 11.86744 3978 ft 218 kts 35°
2026-05-04 12:16 48.40362 11.87838 4728 ft 212 kts 15°
2026-05-04 12:17 48.41832 11.87628 5197 ft 223 kts 335°
2026-05-04 12:17 48.42934 11.86025 5851 ft 223 kts 299°
2026-05-04 12:17 48.43759 11.84054 6633 ft 223 kts 302°
2026-05-04 12:17 48.44674 11.82138 7344 ft 226 kts 304°
2026-05-04 12:18 48.45626 11.80253 8102 ft 227 kts 305°
2026-05-04 12:18 48.46613 11.78374 8814 ft 230 kts 306°
2026-05-04 12:18 48.47628 11.76493 9544 ft 233 kts 306°
2026-05-04 12:18 48.48664 11.74626 10277 ft 232 kts 310°
2026-05-04 12:19 48.49768 11.72824 10839 ft 236 kts 306°
2026-05-04 12:19 48.50803 11.70913 11405 ft 243 kts 304°
2026-05-04 12:19 48.51925 11.68836 11724 ft 264 kts 305°
2026-05-04 12:19 48.53137 11.66638 12000 ft 286 kts 306°
2026-05-04 12:20 48.54482 11.64237 12187 ft 314 kts 307°
2026-05-04 12:20 48.55960 11.61609 12417 ft 342 kts 307°
2026-05-04 12:20 48.57564 11.58769 12624 ft 369 kts 307°
2026-05-04 12:20 48.59290 11.55710 12890 ft 393 kts 307°
2026-05-04 12:21 48.61095 11.52512 13547 ft 405 kts 307°
2026-05-04 12:21 48.62942 11.49237 14279 ft 413 kts 307°
2026-05-04 12:21 48.64817 11.45913 15083 ft 417 kts 307°
2026-05-04 12:21 48.66703 11.42561 15964 ft 420 kts 307°
2026-05-04 12:22 48.68599 11.39180 16765 ft 424 kts 308°
2026-05-04 12:22 48.70591 11.35830 17444 ft 432 kts 315°
2026-05-04 12:22 48.73036 11.33084 17993 ft 444 kts 326°
2026-05-04 12:22 48.75688 11.30638 18739 ft 446 kts 326°
2026-05-04 12:23 48.78317 11.28153 19547 ft 446 kts 325°
2026-05-04 12:23 48.80923 11.25569 20231 ft 449 kts 324°
2026-05-04 12:23 48.83533 11.22913 20839 ft 454 kts 323°
2026-05-04 12:23 48.86084 11.20074 21431 ft 456 kts 317°
2026-05-04 12:24 48.88414 11.16782 22078 ft 458 kts 313°
2026-05-04 12:24 48.90698 11.13381 22732 ft 462 kts 313°
2026-05-04 12:24 48.93037 11.09998 23372 ft 466 kts 314°
2026-05-04 12:24 48.95432 11.06636 23921 ft 470 kts 315°
2026-05-04 12:25 48.97854 11.03270 24459 ft 473 kts 314°
2026-05-04 12:25 49.00253 10.99920 24919 ft 478 kts 314°
2026-05-04 12:25 49.02620 10.96602 25015 ft 476 kts 314°
2026-05-04 12:25 49.05055 10.93180 25024 ft 477 kts 314°
2026-05-04 12:26 49.07496 10.89744 25024 ft 478 kts 314°
2026-05-04 12:26 49.09936 10.86302 25023 ft 478 kts 314°
2026-05-04 12:26 49.12378 10.82850 25036 ft 478 kts 314°
2026-05-04 12:26 49.14813 10.79402 25036 ft 478 kts 314°
2026-05-04 12:27 49.17243 10.75958 25034 ft 477 kts 314°
2026-05-04 12:27 49.19678 10.72502 25040 ft 477 kts 314°
2026-05-04 12:27 49.22058 10.68969 25038 ft 476 kts 311°
2026-05-04 12:27 49.24358 10.65326 25033 ft 476 kts 310°
2026-05-04 12:28 49.26608 10.61687 25038 ft 476 kts 310°
2026-05-04 12:28 49.28891 10.58011 25031 ft 476 kts 310°
2026-05-04 12:28 49.31188 10.54350 25025 ft 476 kts 311°
2026-05-04 12:28 49.32745 10.51885 25029 ft 476 kts 311°
2026-05-04 12:29 49.35778 10.47088 24593 ft 470 kts 310°
2026-05-04 12:29 49.37884 10.43308 23882 ft 463 kts 304°
2026-05-04 12:29 49.39737 10.39294 23139 ft 459 kts 301°
2026-05-04 12:29 49.40927 10.36534 22604 ft 457 kts 300°
2026-05-04 12:30 49.48154 10.20111 19771 ft 444 kts 302°
2026-05-04 12:31 49.49915 10.16241 19179 ft 440 kts 302°
2026-05-04 12:31 49.51658 10.12399 18593 ft 436 kts 302°
2026-05-04 12:31 49.53384 10.08583 17949 ft 433 kts 302°
2026-05-04 12:31 49.55095 10.04792 17509 ft 425 kts 302°
2026-05-04 12:32 49.56731 10.01171 17353 ft 395 kts 302°
2026-05-04 12:32 49.59564 9.94895 16868 ft 337 kts 301°
2026-05-04 12:32 49.60862 9.92007 16377 ft 321 kts 301°
2026-05-04 12:33 49.62115 9.89208 15656 ft 314 kts 301°
2026-05-04 12:33 49.63330 9.86486 14876 ft 311 kts 302°
2026-05-04 12:33 49.64549 9.83753 14094 ft 308 kts 302°
2026-05-04 12:33 49.65761 9.81039 13261 ft 306 kts 302°
2026-05-04 12:34 49.66957 9.78357 12446 ft 302 kts 302°
2026-05-04 12:34 49.68142 9.75701 11652 ft 298 kts 302°
2026-05-04 12:34 49.69320 9.73087 10876 ft 295 kts 306°
2026-05-04 12:34 49.70729 9.70781 10378 ft 300 kts 313°
2026-05-04 12:35 49.72255 9.68497 10246 ft 308 kts 313°
2026-05-04 12:35 49.73792 9.66206 10072 ft 305 kts 314°
2026-05-04 12:35 49.75296 9.63973 9981 ft 294 kts 314°
2026-05-04 12:35 49.76749 9.61826 9982 ft 287 kts 314°
2026-05-04 12:36 49.78193 9.59694 9914 ft 285 kts 314°
2026-05-04 12:36 49.79615 9.57591 9427 ft 280 kts 314°
2026-05-04 12:36 49.81017 9.55516 8913 ft 277 kts 314°
2026-05-04 12:36 49.82429 9.53433 8314 ft 283 kts 314°
2026-05-04 12:37 49.83857 9.51325 7886 ft 284 kts 314°
2026-05-04 12:37 49.85289 9.49212 7464 ft 285 kts 314°
2026-05-04 12:37 49.86722 9.47085 7088 ft 285 kts 314°
2026-05-04 12:37 49.88155 9.44950 7021 ft 288 kts 314°
2026-05-04 12:38 49.89606 9.42779 6996 ft 291 kts 314°
2026-05-04 12:38 49.91053 9.40610 6993 ft 288 kts 314°
2026-05-04 12:38 49.92486 9.38467 6985 ft 285 kts 313°
2026-05-04 12:38 49.93924 9.36337 7003 ft 286 kts 314°
2026-05-04 12:39 49.95356 9.34203 6994 ft 285 kts 314°
2026-05-04 12:39 49.96789 9.32067 6994 ft 285 kts 314°
2026-05-04 12:39 49.98177 9.29898 7020 ft 282 kts 308°
2026-05-04 12:39 49.99387 9.27541 6992 ft 283 kts 304°
2026-05-04 12:40 50.00555 9.25095 6879 ft 283 kts 304°
2026-05-04 12:40 50.01711 9.22638 6629 ft 280 kts 304°
2026-05-04 12:40 50.02852 9.20210 6285 ft 277 kts 304°
2026-05-04 12:40 50.03985 9.17790 5836 ft 277 kts 304°
2026-05-04 12:41 50.05115 9.15359 5408 ft 277 kts 303°
2026-05-04 12:41 50.06230 9.12960 5141 ft 272 kts 302°
2026-05-04 12:41 50.07399 9.10561 4900 ft 285 kts 304°
2026-05-04 12:41 50.08588 9.08118 4962 ft 271 kts 304°
2026-05-04 12:42 50.09661 9.05793 4520 ft 263 kts 302°
2026-05-04 12:42 50.10634 9.03395 4072 ft 257 kts 297°
2026-05-04 12:42 50.11401 9.01023 3613 ft 249 kts 291°
2026-05-04 12:42 50.12044 8.98610 3328 ft 250 kts 288°
2026-05-04 12:43 50.12491 8.96024 3187 ft 239 kts 276°
2026-05-04 12:43 50.12524 8.93529 3128 ft 223 kts 261°
2026-05-04 12:43 50.12152 8.91239 3121 ft 208 kts 245°
2026-05-04 12:43 50.11536 8.89114 2988 ft 222 kts 244°
2026-05-04 12:44 50.10921 8.86975 2958 ft 216 kts 247°
2026-05-04 12:44 50.10381 8.84772 3003 ft 221 kts 251°
2026-05-04 12:44 50.09911 8.82488 2934 ft 226 kts 252°
2026-05-04 12:44 50.09450 8.79924 3270 ft 258 kts 255°
2026-05-04 12:45 50.09073 8.77466 4636 ft 202 kts 257°
2026-05-04 12:45 50.08692 8.75348 3804 ft 215 kts 251°
2026-05-04 12:45 50.08097 8.73204 3200 ft 216 kts 239°
2026-05-04 12:45 50.07302 8.71241 2770 ft 217 kts 236°
2026-05-04 12:46 50.06455 8.69299 2340 ft 209 kts 238°
2026-05-04 12:46 50.05929 8.67282 1723 ft 197 kts 253°
2026-05-04 12:46 50.05588 8.65270 1362 ft 188 kts 253°
2026-05-04 12:46 50.05169 8.63400 1148 ft 180 kts 248°
2026-05-04 12:47 50.04724 8.61666 914 ft 165 kts 254°
2026-05-04 12:47 50.04335 8.60019 603 ft 160 kts 253°
2026-05-04 12:47 50.03964 8.58472 395 ft 142 kts 249°
2026-05-04 12:47 50.03647 8.57181 358 ft 112 kts 257°
2026-05-04 12:48 50.03415 8.56147 356 ft 90 kts 254°
2026-05-04 12:48 50.03241 8.55423 358 ft 62 kts 251°
2026-05-04 12:48 50.03093 8.54802 355 ft 42 kts 247°
2026-05-04 12:48 50.03016 8.54501 360 ft 30 kts 250°
2026-05-04 12:49 50.03012 8.54247 355 ft 7 kts 285°
2026-05-04 12:49 50.03018 8.54170 358 ft 0 kts 279°
2026-05-04 12:49 50.03018 8.54169 358 ft 2 kts 279°
2026-05-04 12:49 50.03019 8.54163 358 ft 0 kts 280°
2026-05-04 12:52 50.03041 8.54065 356 ft 20 kts 284°
2026-05-04 12:52 50.03057 8.53964 352 ft 8 kts 283°
2026-05-04 12:52 50.03070 8.53874 356 ft 11 kts 282°
2026-05-04 12:53 50.03076 8.53804 357 ft 8 kts 269°
2026-05-04 12:53 50.03052 8.53666 355 ft 16 kts 233°
2026-05-04 12:53 50.03017 8.53504 357 ft 16 kts 264°
2026-05-04 12:53 50.02985 8.53338 355 ft 16 kts 257°
2026-05-04 12:54 50.02946 8.53176 353 ft 16 kts 257°
2026-05-04 12:54 50.02941 8.53002 354 ft 16 kts 269°
2026-05-04 12:54 50.02939 8.52919 356 ft 0 kts 270°